This is the latest recevied weather packets stored in our database for station/object VA3XLT-1. If no packets are shown the sender has not sent any weather packets the latest 10 day(s).
| Time | Temp. | Humidity | Pressure | Rain* | Wind** | Luminosity | Snow |
|---|---|---|---|---|---|---|---|
| 1777963358 | 16.11° C | 80% | 1000.7 hPa | 0 mm | - | - | - |
| 1777963058 | 16.11° C | 81% | 1000.7 hPa | 0 mm | - | - | - |
| 1777962758 | 16.11° C | 81% | 1000.5 hPa | 0 mm | - | - | - |
| 1777962458 | 16.11° C | 81% | 1000.9 hPa | 0 mm | - | - | - |
| 1777962158 | 16.11° C | 80% | 1001 hPa | 0 mm | - | - | - |
| 1777961858 | 16.11° C | 79% | 1000.9 hPa | 0 mm | - | - | - |
| 1777961558 | 16.11° C | 80% | 1001.1 hPa | 0 mm | - | - | - |
| 1777961258 | 15.56° C | 82% | 1001.3 hPa | 0 mm | - | - | - |
| 1777960958 | 15.56° C | 83% | 1001.5 hPa | 0 mm | - | - | - |
| 1777960658 | 15.56° C | 82% | 1001.4 hPa | 0 mm | - | - | - |
| 1777960359 | 15.56° C | 82% | 1001.3 hPa | 0 mm | - | - | - |
| 1777960058 | 15.56° C | 81% | 1001.6 hPa | 0 mm | - | - | - |
| 1777959759 | 15.56° C | 82% | 1001.7 hPa | 0 mm | - | - | - |
| 1777959458 | 15.56° C | 81% | 1001.7 hPa | 0 mm | - | - | - |
| 1777959158 | 15.56° C | 81% | 1001.7 hPa | 0 mm | - | - | - |
| 1777958859 | 15.56° C | 80% | 1001.9 hPa | 0 mm | - | - | - |
| 1777958559 | 15.56° C | 81% | 1001.8 hPa | 0 mm | - | - | - |
| 1777958259 | 15.56° C | 80% | 1001.7 hPa | 0 mm | - | - | - |
| 1777957959 | 15.56° C | 80% | 1001.5 hPa | 0 mm | - | - | - |
| 1777957659 | 15.56° C | 80% | 1001.5 hPa | 0 mm | - | - | - |
| 1777957359 | 15.56° C | 80% | 1001.3 hPa | 0 mm | - | - | - |
| 1777957059 | 15.56° C | 81% | 1001.3 hPa | 0 mm | - | - | - |
| 1777956759 | 15.56° C | 82% | 1001.4 hPa | 0 mm | - | - | - |
| 1777956459 | 15.56° C | 80% | 1001.5 hPa | 0 mm | - | - | - |
| 1777956159 | 16.11° C | 77% | 1001.4 hPa | 0 mm | - | - | - |
* Rain latest hour (hover to see other rain measurements)
** Current wind speed in m/s (hover to see current wind gust speed)